Time,TemperatureF,DewpointF,PressureIn,WindDirection,WindDirectionDegrees,WindSpeedMPH,WindSpeedGustMPH,Humidity,HourlyPrecipIn,Conditions,Clouds,dailyrainin,SoftwareType,DateUTC
2013-12-01 00:02:00,25.8,23.3,28.25,ESE,120,0.0,0.0,90,0.00,,,0.00,Wunderground v.1.15,2013-12-01 06:02:00,
2013-12-01 00:08:00,25.5,22.7,28.25,ESE,120,0.0,0.0,89,0.00,,,0.00,Wunderground v.1.15,2013-12-01 06:08:00,
2013-12-01 00:14:00,25.3,22.5,28.25,SE,139,0.0,0.0,89,0.00,,,0.00,Wunderground v.1.15,2013-12-01 06:14:00,
2013-12-01 00:20:00,25.0,22.2,28.25,ESE,120,0.0,0.0,89,0.00,,,0.00,Wunderground v.1.15,2013-12-01 06:20:00,
2013-12-01 00:26:00,24.8,22.3,28.25,East,92,0.0,0.0,90,0.00,,,0.00,Wunderground v.1.15,2013-12-01 06:26:00,
2013-12-01 00:32:00,24.7,22.2,28.25,ENE,68,0.0,2.0,90,0.00,,,0.00,Wunderground v.1.15,2013-12-01 06:32:00,
2013-12-01 00:38:00,25.0,22.5,28.25,ENE,67,2.0,3.0,90,0.00,,,0.00,Wunderground v.1.15,2013-12-01 06:38:00,
2013-12-01 00:44:00,24.8,22.0,28.25,NE,49,2.0,2.0,89,0.00,,,0.00,Wunderground v.1.15,2013-12-01 06:44:00,
2013-12-01 00:50:00,24.6,21.8,28.25,NE,56,2.0,2.0,89,0.00,,,0.00,Wunderground v.1.15,2013-12-01 06:50:00,
2013-12-01 00:56:00,24.5,21.7,28.25,ENE,65,2.0,3.0,89,0.00,,,0.00,Wunderground v.1.15,2013-12-01 06:56:00,
2013-12-01 01:02:00,24.4,21.6,28.24,East,87,1.0,1.0,89,0.00,,,0.00,Wunderground v.1.15,2013-12-01 07:02:00,
2013-12-01 01:08:00,24.1,21.3,28.24,East,91,0.0,1.0,89,0.00,,,0.00,Wunderground v.1.15,2013-12-01 07:08:00,
2013-12-01 01:14:00,24.0,21.2,28.24,ENE,73,0.0,0.0,89,0.00,,,0.00,Wunderground v.1.15,2013-12-01 07:14:00,
2013-12-01 01:20:00,24.0,21.2,28.24,ESE,116,0.0,2.0,89,0.00,,,0.00,Wunderground v.1.15,2013-12-01 07:20:00,
2013-12-01 01:26:00,23.7,20.9,28.24,East,94,0.0,2.0,89,0.00,,,0.00,Wunderground v.1.15,2013-12-01 07:26:00,
2013-12-01 01:32:00,23.4,20.6,28.24,ESE,113,0.0,0.0,89,0.00,,,0.00,Wunderground v.1.15,2013-12-01 07:32:00,
2013-12-01 01:38:00,23.3,20.8,28.23,ESE,118,0.0,0.0,90,0.00,,,0.00,Wunderground v.1.15,2013-12-01 07:38:00,
2013-12-01 01:44:00,23.1,20.6,28.23,ENE,68,0.0,1.0,90,0.00,,,0.00,Wunderground v.1.15,2013-12-01 07:44:00,
2013-12-01 01:50:00,23.3,20.8,28.23,ENE,68,1.0,1.0,90,0.00,,,0.00,Wunderground v.1.15,2013-12-01 07:50:00,
2013-12-01 01:56:00,23.4,20.9,28.23,ENE,66,1.0,3.0,90,0.00,,,0.00,Wunderground v.1.15,2013-12-01 07:56:00,
2013-12-01 02:02:00,23.4,20.9,28.22,East,86,2.0,4.0,90,0.00,,,0.00,Wunderground v.1.15,2013-12-01 08:02:00,
2013-12-01 02:08:00,23.3,20.5,28.22,ESE,118,1.0,4.0,89,0.00,,,0.00,Wunderground v.1.15,2013-12-01 08:08:00,
2013-12-01 02:14:00,23.2,20.7,28.22,SE,129,0.0,5.0,90,0.00,,,0.00,Wunderground v.1.15,2013-12-01 08:14:00,
2013-12-01 02:20:00,23.2,20.7,28.21,ENE,73,1.0,1.0,90,0.00,,,0.00,Wunderground v.1.15,2013-12-01 08:20:00,
2013-12-01 02:26:00,23.2,20.4,28.21,SE,124,1.0,2.0,89,0.00,,,0.00,Wunderground v.1.15,2013-12-01 08:26:00,
2013-12-01 02:32:00,23.0,20.2,28.21,ESE,121,3.0,5.0,89,0.00,,,0.00,Wunderground v.1.15,2013-12-01 08:32:00,
2013-12-01 02:38:00,22.8,20.0,28.20,SE,132,4.0,6.0,89,0.00,,,0.00,Wunderground v.1.15,2013-12-01 08:38:00,
2013-12-01 02:44:00,22.8,20.3,28.21,SE,141,3.0,4.0,90,0.00,,,0.00,Wunderground v.1.15,2013-12-01 08:44:00,
2013-12-01 02:50:00,22.8,20.3,28.22,South,174,1.0,1.0,90,0.00,,,0.00,Wunderground v.1.15,2013-12-01 08:50:00,
2013-12-01 02:56:00,22.7,20.2,28.23,WNW,301,0.0,1.0,90,0.00,,,0.00,Wunderground v.1.15,2013-12-01 08:56:00,
2013-12-01 03:02:00,22.7,20.2,28.23,WNW,300,0.0,8.0,90,0.00,,,0.00,Wunderground v.1.15,2013-12-01 09:02:00,
2013-12-01 03:08:00,22.6,20.1,28.22,SE,134,0.0,8.0,90,0.00,,,0.00,Wunderground v.1.15,2013-12-01 09:08:00,
2013-12-01 03:10:00,22.6,20.1,28.22,SE,136,0.0,8.0,90,0.00,,,0.00,Wunderground v.1.15,2013-12-01 09:10:00,
2013-12-01 03:16:00,22.5,20.0,28.22,SE,146,1.0,8.0,90,0.00,,,0.00,Wunderground v.1.15,2013-12-01 09:16:00,
2013-12-01 03:22:00,22.5,20.0,28.22,SE,143,0.0,8.0,90,0.00,,,0.00,Wunderground v.1.15,2013-12-01 09:22:00,
2013-12-01 03:28:00,22.5,20.0,28.22,SE,142,0.0,8.0,90,0.00,,,0.00,Wunderground v.1.15,2013-12-01 09:28:00,
2013-12-01 03:34:00,22.6,20.1,28.21,East,90,0.0,8.0,90,0.00,,,0.00,Wunderground v.1.15,2013-12-01 09:34:00,
2013-12-01 03:40:00,22.5,20.0,28.21,SE,129,0.0,8.0,90,0.00,,,0.00,Wunderground v.1.15,2013-12-01 09:40:00,
2013-12-01 03:46:00,22.5,20.0,28.21,ENE,72,0.0,8.0,90,0.00,,,0.00,Wunderground v.1.15,2013-12-01 09:46:00,
2013-12-01 03:52:00,22.7,20.2,28.21,ENE,67,0.0,8.0,90,0.00,,,0.00,Wunderground v.1.15,2013-12-01 09:52:00,
2013-12-01 03:58:00,22.9,20.4,28.21,ENE,67,0.0,8.0,90,0.00,,,0.00,Wunderground v.1.15,2013-12-01 09:58:00,
2013-12-01 04:04:00,23.1,20.6,28.21,NE,40,0.0,8.0,90,0.00,,,0.00,Wunderground v.1.15,2013-12-01 10:04:00,
2013-12-01 04:10:00,23.1,20.6,28.21,NE,35,0.0,8.0,90,0.00,,,0.00,Wunderground v.1.15,2013-12-01 10:10:00,